Simultaneous Nadir Overpasses (SNOs) Predictions

Prediction of SNOs between GOES-15 and NPP Satellite Orbit:

Table of predicted SNOs for the next 14.0 days since TLE Epoch: 12/3/2016
Index Date Time (GOES-15) GOES-15 Lat,Lon NPP Lat,Lon Distance(km) Time Diff (sec)
1 12/04/2016 10:21:34 -0.00,-135.39 -0.36,-133.80 181.05 80
2 12/05/2016 22:40:50 0.02,-135.34 -0.82,-139.11 429.45 80
3 12/06/2016 22:24:44 0.01,-135.34 0.15,-134.57 86.29 80
4 12/09/2016 10:27:48 -0.02,-135.35 -0.03,-135.32 2.74 80
5 12/11/2016 22:28:19 0.03,-135.27 -0.17,-136.09 94.19 80
6 12/12/2016 22:12:15 0.02,-135.25 0.86,-131.57 420.44 80
7 12/14/2016 10:31:23 -0.03,-135.26 0.30,-136.84 179.94 80
8 12/15/2016 10:15:17 -0.02,-135.24 -0.66,-132.30 334.24 80
9 12/16/2016 22:34:34
